Simultaneous Nadir Overpasses (SNOs) Predictions

Prediction of SNOs between AQUA and METOP-B Satellite Orbit:

Table of predicted SNOs for the next 14.0 days since TLE Epoch: 5/25/2013
Index Date (AQUA) Time (AQUA) Lat,Lon (AQUA) SZA (AQUA ) Date (METOP-B) Time (METOP-B) Lat,Lon (METOP-B) SZA (METOP-B ) Distance(km) Time Diff (sec)
1 05/26/2013 00:16:46 -73.75, -9.65 127.39 05/26/2013 00:15:58 -73.72, -9.62 127.42 3.38 48
2 05/26/2013 01:06:14 73.78, 157.93 52.63 05/26/2013 01:06:37 73.79, 157.88 52.65 2.40 23
3 05/28/2013 19:51:01 -73.75, 56.79 127.86 05/28/2013 19:50:21 -73.74, 56.83 127.86 1.34 40
4 05/28/2013 20:40:30 73.83,-135.75 52.23 05/28/2013 20:41:00 73.81,-135.67 52.20 3.20 30
5 05/31/2013 15:25:14 -73.73, 123.27 128.29 05/31/2013 15:24:43 -73.75, 123.26 128.26 2.38 31
6 05/31/2013 16:14:43 73.82, -69.29 51.80 05/31/2013 16:15:22 73.82, -69.24 51.80 1.53 39
7 06/03/2013 10:59:28 -73.75,-170.34 128.63 06/03/2013 10:59:06 -73.76,-170.33 128.62 0.58 22
8 06/03/2013 11:48:57 73.84, -2.90 51.47 06/03/2013 11:49:45 73.83, -2.83 51.45 2.82 48
9 06/06/2013 05:44:07 73.33, 89.36 50.63 06/06/2013 05:42:58 73.24, 87.58 50.61 57.82 69
10 06/06/2013 06:33:41 -73.76,-103.91 128.93 06/06/2013 06:33:29 -73.75,-103.93 128.93 0.93 12
11 06/06/2013 07:23:09 73.80, 63.64 51.12 06/06/2013 07:24:08 73.82, 63.57 51.13 3.21 59




NCC Satellite Simultaneous Nadir Overpasses (SNOs) Prediction Service
